Current Version              Previous Version:    01  02  03  04  05  06  07  08  09  10  11  12  13  14  15  16  17  18  19  20  21  22  23  24  25  26  27  28  29  30  
   31  32  33  34  35  36  37  38  39  40  41  42  43  44  45  46  47  48  49  50  51  52  53  54  55  56  57  58  59  60  

[Printable]
433
ASUS44 KLUB 011510
RWRTX
WEST TEXAS WEATHER ROUNDUP
NATIONAL WEATHER SERVICE LUBBOCK TX
1000 AM CDT MON SEP 01 2014

NOTE: "FAIR" INDICATES FEW OR NO CLOUDS BELOW 12,000 FEET WITH NO
SIGNIFICANT WEATHER AND/OR OBSTRUCTIONS TO VISIBILITY.

TXZ004-006>008-010-012-014-016-OKZ002-011600-
TEXAS PANHANDLE/OKLAHOMA PANHANDLE

CITY           SKY/WX    TMP DP  RH WIND       PRES   REMARKS
AMARILLO       SUNNY     72  59  63 N13       29.96R
BORGER         SUNNY     72  58  61 N8        29.94R
CANADIAN       MOSUNNY   71  65  81 NW7       29.88R
DALHART        SUNNY     72  55  55 N15       30.01R
DUMAS          SUNNY     69  58  68 N14G20    29.98R
GUYMON         SUNNY     71  56  58 N20       29.94S
HEREFORD       SUNNY     75  59  57 N7        29.98R
PAMPA          SUNNY     70  58  66 N9        29.94R
PERRYTON       CLOUDY    67  61  80 N17       29.91R
$$

TXZ026-029-035-045-048-011600-
SOUTHERN PANHANDLE/SOUTH PLAINS/ROLLING PLAINS

CITY           SKY/WX    TMP DP  RH WIND       PRES   REMARKS
CHILDRESS      SUNNY     84  67  56 SW12      29.87R
SEMINOLE       SUNNY     82  60  47 SW16      29.97R
LUBBOCK        SUNNY     82  62  50 SW20      29.93R
PLAINVIEW      SUNNY     80  64  58 SW14G20   29.93R
SNYDER         SUNNY     80  69  69 S18       29.93S
$$

TXZ052-054-060>062-072-078-127-140-154-169-011600-
PERMIAN BASIN/CONCHO VALLEY/BIG COUNTRY/EDWARDS PLATEAU

CITY           SKY/WX    TMP DP  RH WIND       PRES   REMARKS
ABILENE        SUNNY     82  69  64 S22G29    29.91S
BIG SPRING     SUNNY     82  67  61 S23       29.95S
BRADY          SUNNY     81  66  61 S14       29.95S
BROWNWOOD      SUNNY     82  66  57 S15G21    29.94S
JUNCTION       SUNNY     81  67  62 S13G18    29.97S
MIDLAND        SUNNY     83  65  54 S16G28    29.93S
ODESSA         SUNNY     83  63  50 SW18      29.95R
SAN ANGELO     SUNNY     83  68  60 S20G25    29.93S
SONORA         SUNNY     81  68  65 S15       30.01S
SWEETWATER     SUNNY     82  68  62 S25       29.95R
WINK           SUNNY     85  63  47 S10       29.92R
$$

TXZ055-058-074-075-080-082-011600-
FAR WEST/SOUTHWEST MOUNTAINS/TRANS PECOS

CITY           SKY/WX    TMP DP  RH WIND       PRES   REMARKS
ALPINE         MOSUNNY   83  57  41 SW7       30.13S
DRYDEN           N/A     85  67  54 SE12      29.94S
EL PASO        MOSUNNY   81  46  29 SE6       30.02R
FORT STOCKTON  SUNNY     86  61  42 SW10      29.95S
GUADALUPE PASS SUNNY     74  49  41 SW13      30.14R
MARFA          SUNNY     77  59  53 S8        30.14R
PECOS          SUNNY     82  59  45 CALM      29.93R
PRESIDIO       FAIR      86  60  41 E5        29.98R
$$

TXZ014-016-019-021>030-083-011600
TEXAS TECH WEST TEXAS MESONET/TEXAS PANHANDLE/NORTHERN SOUTH PLAINS

CITY           SKY/WX    TMP DP  RH WIND       PRES   REMARKS
ABERNATHY 5ENE   N/A     81  62  51 SW20      29.95R
AMARILLO 9NNE    N/A     71  58  64 N10       29.96R
AMARILLO 7SSE    N/A     72  59  64 NW10      29.97R
AMHERST 1NE      N/A     80  60  51 SW13      29.95R
BOOTLEG 11WNW    N/A     71  56  59 N13       30.03R
CANADIAN 6E      N/A     73  64  75 NW8       29.86S
CAPROCK CYN SP   N/A     85  63  47 NW7       29.89R
CHILDRESS 2NNE   N/A     84  66  54 S8        29.86R
CLARENDON 2WSW   N/A     83  61  47 SW12      29.90R
CLAUDE 12SW      N/A     77  59  52 W10       29.93S
DIMMITT 2NE      N/A     76  57  52 W9        29.97R
FLOYDADA 2NNE    N/A     78  63  58 SW16      29.92S
FRIONA 2NE       N/A     72  55  55 N7        30.00R
GOODLETT 3W      N/A     86  65  50 S13       29.84S
HART 3N          N/A     76  62  61 W12       29.96R
HEREFORD 2NW     N/A     72  57  59 N7        29.97S
MCLEAN 1E        N/A     83  61  47 SW15G26   29.88S
MEMPHIS 1NE      N/A     85  66  53 S5        29.86S
MULESHOE 2SSW    N/A     80  55  42 W14       29.97R
OLTON 6S         N/A     80  60  50 SW16      29.94S
PALO DURO SP     N/A     78  57  48 NW9       29.96R
PAMPA 2E         N/A     70  61  71 NW10      29.92S
PLAINVIEW 1S     N/A     80  64  57 SW10      29.93S
SILVERTON 7ESE   N/A     82  62  50 SW23      29.90S
TULIA 2ENE       N/A     79  63  57 SW14      29.94R
TURKEY 2WSW      N/A     85  64  49 SW16      29.86S
UMBARGER 3NNE    N/A     73  58  60 N10       29.97S
$$

TXZ033>036-039>041-045>048-011600
TEXAS TECH WEST TEXAS MESONET/SOUTH PLAINS

CITY           SKY/WX    TMP DP  RH WIND       PRES   REMARKS
AIKEN 3WSW       N/A     82  64  54 SW18      29.94S
ANDREWS 2NE      N/A     83  60  45 S13       29.95R
ANTON 6SSW       N/A     80  62  55 SW21      29.94S
BROWNFIELD 2S    N/A     80  62  54 SW13      29.95S
DENVR CTY 7WNW   N/A     79  60  52 S10       29.97S
GAIL 2ESE        N/A     82  66  59 S15       29.91S
LAMESA 2SE       N/A     81  64  56 S14       29.94S
LEVELLAND 4S     N/A     80  62  53 S13       29.95F
LUBBOCK 3WNW     N/A     81  62  51 SW17      29.93S
MORTON 1ENE      N/A     79  60  51 SW8       29.96S
ODONNELL 1N      N/A     80  62  55 S18       29.94R
PLAINS 3N        N/A     80  60  51 SW10      29.98R
RALLS 1SE        N/A     80  64  56 SW18      29.93S
REESE CENTER     N/A     80  61  53 SW21      29.94S
SEAGRAVES 1SW    N/A     81  62  51 S12       29.96R
SEMINOLE 2NNE    N/A     82  60  47 S12       29.96R
SLATON 2NE       N/A     80  62  55 SW22      29.92R
SNYDER 3E        N/A     80  69  67 S22       29.91R
SUNDOWN 8SW      N/A     81  61  50 S13       29.96S
TAHOKA 3NNE      N/A     81  62  51 SW17      29.93R
WOLFFORTH 6SSW   N/A     80  62  53 S17       29.95R
$$

TXZ031-032-036>038-042>044-011600-
TEXAS TECH WEST TEXAS MESONET/ROLLING PLAINS

CITY           SKY/WX    TMP DP  RH WIND       PRES   REMARKS
ASPERMONT 3NE    N/A     84  69  60 S17       29.87S
FLUVANNA 3WNW    N/A     80  65  61 S17       29.92S
GRAHAM 5SSW      N/A     80  63  55 S15       29.92S
GUTHRIE 10WSW    N/A     84  68  58 SW18      29.85S
HASKELL 1NW      N/A     83  66  56 S18       29.87R
JAYTON 1SSE      N/A     83  68  59 S15       29.88R
KNOX CITY 3NW    N/A     84  67  55 S22       29.86S
LK A HENRY 1NW   N/A     85  67  53 SW13      29.88S
NORTHFIELD 1S    N/A     86  66  51 SW7       29.86S
ODELL 4ENE       N/A     85  71  62 S13       29.86R
PADUCAH 10SW     N/A     84  67  56 S18       29.85R
POST 1NE         N/A     83  63  49 S16       29.89S
RRING SPRGS 3N   N/A     83  65  53 SW17      29.88R
SEYMOUR 3NW      N/A     83  68  61 S20       29.85S
SPUR 1W          N/A     83  65  53 S13       29.88S
WEINERT 2NNE     N/A     84  70  63 S18       29.87R
WHITE RVR 6NE    N/A     83  64  53 S14       29.90S
$$

TXZ052-054-060>062-072-078-127-140-154-169-011600-
TEXAS TECH WEST TEXAS MESONET/PERMIAN BASIN/
CONCHO VALLEY/BIG COUNTRY/EDWARDS PLATEAU

CITY           SKY/WX    TMP DP  RH WIND       PRES   REMARKS
JUNCTION 1SSW    N/A     82  67  62 S13       29.97S
MERTZON 3NNE     N/A     82  69  65 S17       29.95R
SAN ANGELO 7NW   N/A     82  67  59 S15       29.94S
STRLNG CT 4WSW   N/A     82  69  65 S13       29.95R
ST LAWRNCE 5SW   N/A     79  68  69 S17       29.95S
SWEETWATR 11SW   N/A     81  69  67 S18       29.94R
WALL 1E          N/A     81  66  60 S14       29.94S
$$

TXZ055-058-074-075-080-082-011600-
TEXAS TECH WEST TEXAS MESONET/FAR WEST/SOUTHWEST MOUNTAINS/TRANS PECOS

CITY           SKY/WX    TMP DP  RH WIND       PRES   REMARKS
PRSMN GAP BBNP   N/A     86  62  45 SE5       29.98R
GUADLPE MTN NP   N/A     83  37  19 NW20      30.14R
$$